GW4424 Weather Reports


time (UTC)temp
F
wind
direction
speed
knots
gust
knots
rain 1hr
in
rain 24hr
in
rain mn
in
humidity
%
barometer
mb
20260507151539 63 313 0.0 3.5 0.00 0.00 0.00 85 1016.6
20260507150038 62 296 0.9 4.3 0.00 0.00 0.00 86 1016.5
20260507144535 62 259 1.7 3.5 0.00 0.00 0.00 86 1016.4
20260507143031 62 256 1.7 5.2 0.00 0.00 0.00 86 1016.4
20260507141531 62 269 0.9 2.6 0.00 0.00 0.00 87 1016.2
20260507140037 61 269 0.0 2.6 0.00 0.00 0.00 87 1016.1
20260507134525 61 282 1.7 4.3 0.00 0.00 0.00 87 1016.0
20260507133022 61 315 1.7 4.3 0.00 0.00 0.00 87 1015.9
20260507131534 61 281 0.9 3.5 0.00 0.00 0.00 87 1015.9
20260507130020 61 321 1.7 7.0 0.00 0.00 0.00 87 1015.8
20260507124522 61 263 0.9 3.5 0.00 0.00 0.00 87 1015.7
20260507123025 61 309 0.0 3.5 0.00 0.00 0.00 87 1015.6
20260507121518 61 315 1.7 3.5 0.00 0.00 0.00 87 1015.6
20260507120028 61 306 0.0 2.6 0.00 0.00 0.00 86 1015.6
20260507114516 61 305 1.7 3.5 0.00 0.00 0.00 86 1015.6
20260507113031 61 296 1.7 6.1 0.00 0.00 0.00 86 1015.6
20260507111515 62 323 0.9 2.6 0.00 0.00 0.00 86 1015.6
20260507110013 62 300 0.9 5.2 0.00 0.00 0.00 86 1015.7
20260507104518 62 339 0.9 4.3 0.00 0.00 0.00 87 1015.7
20260507103010 62 302 3.5 7.8 0.00 0.00 0.00 87 1015.9
20260507101516 61 297 0.9 7.0 0.00 0.00 0.00 87 1016.0
20260507100022 61 337 0.9 3.5 0.00 0.00 0.00 87 1016.1
20260507094508 61 312 1.7 3.5 0.00 0.00 0.00 87 1016.1
20260507093005 61 302 1.7 4.3 0.00 0.00 0.00 87 1016.3
20260507091504 61 309 1.7 3.5 0.00 0.00 0.00 87 1016.3
20260507090006 61 324 0.9 3.5 0.00 0.00 0.00 87 1016.4
20260507084502 61 304 0.9 3.5 0.00 0.00 0.00 87 1016.7
20260507083056 61 296 0.9 4.3 0.00 0.00 0.00 87 1016.7
20260507081554 61 309 1.7 4.3 0.00 0.00 0.00 87 1016.9
20260507080055 61 292 1.7 4.3 0.00 0.00 0.00 87 1016.9
20260507074552 61 333 1.7 4.3 0.00 0.00 0.00 86 1016.9
20260507073056 61 315 1.7 4.3 0.00 0.00 0.00 86 1017.1
20260507071549 61 314 0.9 2.6 0.00 0.00 0.00 86 1017.0
20260507064548 61 331 1.7 3.5 0.00 0.00 0.00 86 1017.2
20260507063052 62 297 0.9 2.6 0.00 0.00 0.00 86 1017.3
20260507061546 62 315 1.7 4.3 0.00 0.00 0.00 86 1017.2
20260507060046 62 335 1.7 3.5 0.00 0.00 0.00 86 1017.3
20260507054545 62 334 1.7 5.2 0.00 0.00 0.00 86 1017.1
20260507053044 62 328 3.5 7.0 0.00 0.00 0.00 86 1017.1
20260507051545 62 316 2.6 6.1 0.00 0.00 0.00 86 1017.2
20260507044551 62 331 2.6 4.3 0.00 0.00 0.00 86 1017.2
20260507043041 62 335 1.7 5.2 0.00 0.00 0.00 86 1017.0
20260507041544 62 319 1.7 7.0 0.00 0.00 0.00 86 1017.0
20260507040040 62 295 2.6 7.0 0.00 0.00 0.00 85 1016.9
20260507034542 63 309 1.7 7.0 0.00 0.00 0.00 85 1016.8
20260507033042 63 296 3.5 7.8 0.00 0.00 0.00 85 1016.7
20260507031538 63 300 2.6 5.2 0.00 0.00 0.00 84 1016.6
20260507030038 63 299 3.5 7.8 0.00 0.00 0.00 83 1016.5
20260507024543 63 304 1.7 7.0 0.00 0.00 0.00 82 1016.4
20260507023037 64 292 2.6 7.8 0.00 0.00 0.00 81 1016.3
20260507021547 65 299 1.7 7.8 0.00 0.00 0.00 80 1016.2
20260507020035 65 292 4.3 8.7 0.00 0.00 0.00 79 1016.1
20260507014532 66 298 3.5 9.6 0.00 0.00 0.00 78 1016.1
20260507013035 67 328 3.5 8.7 0.00 0.00 0.00 78 1016.0
20260507011536 67 306 2.6 10.4 0.00 0.00 0.00 77 1016.0
20260507010040 67 300 2.6 9.6 0.00 0.00 0.00 77 1016.0
20260507004529 68 310 2.6 9.6 0.00 0.00 0.00 76 1016.0
20260507003029 68 298 4.3 8.7 0.00 0.00 0.00 76 1016.0
20260507001530 68 289 4.3 8.7 0.00 0.00 0.00 75 1015.9
20260507000033 68 267 3.5 8.7 0.00 0.00 0.00 75 1015.8
20260506234527 69 301 4.3 8.7 0.00 0.00 0.00 74 1015.8
20260506233026 69 270 4.3 9.6 0.00 0.00 0.00 73 1015.8
20260506231527 69 307 5.2 8.7 0.00 0.00 0.00 72 1015.9
20260506230025 69 263 4.3 10.4 0.00 0.00 0.00 71 1016.0
20260506224522 70 300 4.3 8.7 0.00 0.00 0.00 70 1016.1
20260506223020 71 294 3.5 8.7 0.00 0.00 0.00 70 1016.3
20260506221518 70 286 4.3 10.4 0.00 0.00 0.00 69 1016.3
20260506220116 70 290 4.3 10.4 0.00 0.00 0.00 69 1016.5
20260506214515 70 280 5.2 9.6 0.00 0.00 0.00 69 1016.6
20260506213013 70 248 4.3 10.4 0.00 0.00 0.00 69 1016.7
20260506211512 71 329 5.2 12.2 0.00 0.00 0.00 68 1016.7
20260506210011 71 317 6.1 10.4 0.00 0.00 0.00 66 1016.8
20260506204511 72 275 5.2 12.2 0.00 0.00 0.00 64 1016.9
20260506203019 73 307 2.6 8.7 0.00 0.00 0.00 65 1017.1
20260506201510 72 306 2.6 9.6 0.00 0.00 0.00 66 1017.1
20260506200008 73 294 4.3 9.6 0.00 0.00 0.00 64 1017.3
20260506194507 71 269 4.3 8.7 0.00 0.00 0.00 66 1017.5
20260506193002 71 266 4.3 8.7 0.00 0.00 0.00 66 1017.6
20260506191600 71 270 2.6 7.8 0.00 0.00 0.00 67 1017.7
20260506190100 70 273 2.6 6.1 0.00 0.00 0.00 66 1017.8
20260506184604 70 298 1.7 7.8 0.00 0.00 0.00 67 1017.9
20260506183102 70 282 2.6 8.7 0.00 0.00 0.00 65 1018.0
20260506181555 70 299 2.6 7.0 0.00 0.00 0.00 65 1018.1
20260506180044 70 277 2.6 5.2 0.00 0.00 0.00 64 1018.1
20260506174540 70 299 2.6 7.0 0.00 0.00 0.00 65 1018.3
20260506173037 70 296 3.5 7.0 0.00 0.00 0.00 65 1018.3
20260506171541 70 314 2.6 5.2 0.00 0.00 0.00 66 1018.4
20260506170034 68 254 1.7 5.2 0.00 0.00 0.00 68 1018.4
20260506164525 67 267 2.6 5.2 0.00 0.00 0.00 69 1018.4
20260506163023 66 302 0.0 0.0 0.00 0.00 0.00 73 1018.3
20260506161522 65 277 0.0 0.0 0.00 0.00 0.00 72 1018.3
20260506160031 65 288 0.0 0.0 0.00 0.00 0.00 72 1018.2
20260506154517 66 247 0.0 0.0 0.00 0.00 0.00 71 1018.1
20260506153014 66 265 0.0 0.0 0.00 0.00 0.00 73 1018.2